| time (UTC) | temp F | wind direction | speed MPH | gust MPH | rain 1hr in | rain 24hr in | rain mn in | humidity % | barometer mb |
| 20260510180021 | 95 | 268 | 2.0 | 8.0 | 0.00 | 0.00 | 0.00 | 49 | 1016.5 |
| 20260510175510 | 95 | 266 | 4.0 | 10.0 | 0.00 | 0.00 | 0.00 | 50 | 1016.7 |
| 20260510175009 | 95 | 274 | 4.0 | 12.0 | 0.00 | 0.00 | 0.00 | 50 | 1016.7 |
| 20260510174519 | 95 | 254 | 6.0 | 12.0 | 0.00 | 0.00 | 0.00 | 51 | 1016.8 |
| 20260510174011 | 94 | 234 | 3.0 | 10.0 | 0.00 | 0.00 | 0.00 | 52 | 1016.9 |
| 20260510173511 | 93 | 188 | 1.0 | 10.0 | 0.00 | 0.00 | 0.00 | 51 | 1016.8 |
| 20260510173014 | 94 | 232 | 5.0 | 10.0 | 0.00 | 0.00 | 0.00 | 50 | 1017.1 |
| 20260510172509 | 94 | 230 | 2.0 | 8.0 | 0.00 | 0.00 | 0.00 | 50 | 1017.2 |
| 20260510172008 | 95 | 157 | 3.0 | 8.0 | 0.00 | 0.00 | 0.00 | 50 | 1017.2 |
| 20260510171519 | 95 | 215 | 4.0 | 12.0 | 0.00 | 0.00 | 0.00 | 49 | 1017.2 |
| 20260510170510 | 95 | 250 | 6.0 | 11.0 | 0.00 | 0.00 | 0.00 | 52 | 1017.1 |
| 20260510170024 | 95 | 194 | 3.0 | 13.0 | 0.00 | 0.00 | 0.00 | 51 | 1017.2 |
| 20260510165508 | 95 | 244 | 7.0 | 13.0 | 0.00 | 0.00 | 0.00 | 49 | 1017.4 |
| 20260510165008 | 94 | 249 | 5.0 | 13.0 | 0.00 | 0.00 | 0.00 | 56 | 1017.4 |
| 20260510164525 | 93 | 249 | 5.0 | 11.0 | 0.00 | 0.00 | 0.00 | 56 | 1017.4 |
| 20260510164014 | 92 | 277 | 5.0 | 11.0 | 0.00 | 0.00 | 0.00 | 57 | 1017.6 |
| 20260510163508 | 91 | 201 | 3.0 | 9.0 | 0.00 | 0.00 | 0.00 | 56 | 1017.5 |
| 20260510163024 | 90 | 271 | 5.0 | 14.0 | 0.00 | 0.00 | 0.00 | 60 | 1017.6 |
| 20260510162510 | 89 | 211 | 5.0 | 14.0 | 0.00 | 0.00 | 0.00 | 61 | 1017.7 |
| 20260510162009 | 89 | 184 | 2.0 | 10.0 | 0.00 | 0.00 | 0.00 | 61 | 1017.6 |
| 20260510161519 | 89 | 181 | 5.0 | 10.0 | 0.00 | 0.00 | 0.00 | 62 | 1017.7 |
| 20260510161009 | 88 | 207 | 2.0 | 8.0 | 0.00 | 0.00 | 0.00 | 66 | 1017.6 |
| 20260510160508 | 87 | 247 | 3.0 | 8.0 | 0.00 | 0.00 | 0.00 | 72 | 1017.6 |
| 20260510160020 | 85 | 251 | 3.0 | 9.0 | 0.00 | 0.00 | 0.00 | 71 | 1017.6 |
| 20260510155507 | 84 | 163 | 3.0 | 10.0 | 0.00 | 0.00 | 0.00 | 75 | 1017.5 |
| 20260510155012 | 84 | 213 | 4.0 | 11.0 | 0.00 | 0.00 | 0.00 | 72 | 1017.6 |
| 20260510154524 | 84 | 152 | 4.0 | 11.0 | 0.00 | 0.00 | 0.00 | 74 | 1017.6 |
| 20260510154008 | 83 | 202 | 6.0 | 11.0 | 0.00 | 0.00 | 0.00 | 75 | 1017.6 |
| 20260510153508 | 82 | 228 | 7.0 | 11.0 | 0.00 | 0.00 | 0.00 | 77 | 1017.6 |
| 20260510153025 | 82 | 191 | 6.0 | 9.0 | 0.00 | 0.00 | 0.00 | 79 | 1017.7 |
| 20260510152508 | 82 | 189 | 4.0 | 11.0 | 0.00 | 0.00 | 0.00 | 75 | 1017.6 |
| 20260510152010 | 83 | 215 | 8.0 | 11.0 | 0.00 | 0.00 | 0.00 | 78 | 1017.6 |
| 20260510151526 | 83 | 185 | 6.0 | 10.0 | 0.00 | 0.00 | 0.00 | 77 | 1017.7 |
| 20260510151013 | 84 | 251 | 6.0 | 11.0 | 0.00 | 0.00 | 0.00 | 78 | 1017.8 |
| 20260510150508 | 85 | 199 | 6.0 | 11.0 | 0.00 | 0.00 | 0.00 | 74 | 1017.8 |
| 20260510150023 | 89 | 274 | 6.0 | 15.0 | 0.00 | 0.00 | 0.00 | 57 | 1017.7 |
| 20260510145513 | 89 | 217 | 7.0 | 15.0 | 0.00 | 0.00 | 0.00 | 59 | 1017.7 |
| 20260510145007 | 88 | 263 | 6.0 | 11.0 | 0.00 | 0.00 | 0.00 | 59 | 1017.7 |
| 20260510144527 | 87 | 194 | 3.0 | 11.0 | 0.00 | 0.00 | 0.00 | 65 | 1017.7 |
| 20260510144012 | 87 | 216 | 6.0 | 11.0 | 0.00 | 0.00 | 0.00 | 64 | 1017.7 |
| 20260510143509 | 86 | 175 | 4.0 | 11.0 | 0.00 | 0.00 | 0.00 | 69 | 1017.6 |
| 20260510143028 | 85 | 202 | 6.0 | 11.0 | 0.00 | 0.00 | 0.00 | 68 | 1017.7 |
| 20260510142511 | 84 | 243 | 4.0 | 9.0 | 0.00 | 0.00 | 0.00 | 70 | 1017.7 |
| 20260510142011 | 84 | 223 | 4.0 | 9.0 | 0.00 | 0.00 | 0.00 | 72 | 1017.6 |
| 20260510141528 | 83 | 206 | 4.0 | 9.0 | 0.00 | 0.00 | 0.00 | 74 | 1017.6 |
| 20260510141012 | 83 | 189 | 3.0 | 8.0 | 0.00 | 0.00 | 0.00 | 73 | 1017.8 |
| 20260510140510 | 82 | 197 | 2.0 | 7.0 | 0.00 | 0.00 | 0.00 | 74 | 1017.6 |
| 20260510140024 | 82 | 216 | 2.0 | 7.0 | 0.00 | 0.00 | 0.00 | 75 | 1017.7 |
| 20260510140016 | 82 | 216 | 3.0 | 7.0 | 0.00 | 0.00 | 0.00 | 75 | 1017.7 |
| 20260510135508 | 82 | 215 | 3.0 | 7.0 | 0.00 | 0.00 | 0.00 | 75 | 1017.7 |
| 20260510135009 | 82 | 205 | 4.0 | 7.0 | 0.00 | 0.00 | 0.00 | 76 | 1017.8 |
| 20260510134514 | 81 | 193 | 1.0 | 7.0 | 0.00 | 0.00 | 0.00 | 77 | 1017.7 |
| 20260510134007 | 81 | 198 | 3.0 | 6.0 | 0.00 | 0.00 | 0.00 | 78 | 1017.7 |
| 20260510133508 | 80 | 182 | 3.0 | 5.0 | 0.00 | 0.00 | 0.00 | 79 | 1017.6 |
| 20260510133024 | 80 | 200 | 2.0 | 4.0 | 0.00 | 0.00 | 0.00 | 80 | 1017.5 |
| 20260510132507 | 79 | 177 | 1.0 | 5.0 | 0.00 | 0.00 | 0.00 | 81 | 1017.5 |
| 20260510132010 | 79 | 196 | 2.0 | 5.0 | 0.00 | 0.00 | 0.00 | 82 | 1017.4 |
| 20260510131524 | 79 | 196 | 1.0 | 5.0 | 0.00 | 0.00 | 0.00 | 83 | 1017.5 |
| 20260510131011 | 78 | 192 | 0.0 | 4.0 | 0.00 | 0.00 | 0.00 | 84 | 1017.5 |
| 20260510130506 | 78 | 189 | 0.0 | 5.0 | 0.00 | 0.00 | 0.00 | 84 | 1017.4 |
| 20260510130016 | 77 | 153 | 0.0 | 5.0 | 0.00 | 0.00 | 0.00 | 85 | 1017.4 |
| 20260510124521 | 76 | 171 | 1.0 | 4.0 | 0.00 | 0.00 | 0.00 | 87 | 1017.4 |
| 20260510124009 | 76 | 172 | 1.0 | 4.0 | 0.00 | 0.00 | 0.00 | 87 | 1017.4 |
| 20260510123507 | 76 | 184 | 1.0 | 4.0 | 0.00 | 0.00 | 0.00 | 87 | 1017.4 |
| 20260510123017 | 75 | 151 | 0.0 | 2.0 | 0.00 | 0.00 | 0.00 | 87 | 1017.4 |
| 20260510122509 | 75 | 142 | 0.0 | 0.0 | 0.00 | 0.00 | 0.00 | 87 | 1017.2 |
| 20260510122010 | 75 | 142 | 0.0 | 0.0 | 0.00 | 0.00 | 0.00 | 88 | 1017.1 |
| 20260510121516 | 75 | 141 | 0.0 | 0.0 | 0.00 | 0.00 | 0.00 | 88 | 1017.1 |
| 20260510121007 | 74 | 141 | 0.0 | 0.0 | 0.00 | 0.00 | 0.00 | 89 | 1017.1 |
| 20260510120508 | 74 | 141 | 0.0 | 0.0 | 0.00 | 0.00 | 0.00 | 89 | 1017.0 |
| 20260510120028 | 74 | 141 | 0.0 | 0.0 | 0.00 | 0.00 | 0.00 | 90 | 1016.8 |
| 20260510115511 | 74 | 141 | 0.0 | 0.0 | 0.00 | 0.00 | 0.00 | 90 | 1016.8 |
| 20260510115007 | 74 | 317 | 0.0 | 0.0 | 0.00 | 0.00 | 0.00 | 90 | 1016.8 |
| 20260510114522 | 73 | 317 | 0.0 | 0.0 | 0.00 | 0.00 | 0.00 | 90 | 1016.7 |
| 20260510114007 | 73 | 317 | 0.0 | 2.0 | 0.00 | 0.00 | 0.00 | 91 | 1016.6 |
| 20260510113507 | 73 | 316 | 0.0 | 2.0 | 0.00 | 0.00 | 0.00 | 91 | 1016.5 |
| 20260510113030 | 73 | 317 | 1.0 | 2.0 | 0.00 | 0.00 | 0.00 | 92 | 1016.3 |
| 20260510112512 | 73 | 317 | 0.0 | 2.0 | 0.00 | 0.00 | 0.00 | 92 | 1016.2 |
| 20260510112009 | 73 | 317 | 0.0 | 2.0 | 0.00 | 0.00 | 0.00 | 92 | 1016.0 |
| 20260510111526 | 72 | 317 | 1.0 | 2.0 | 0.00 | 0.00 | 0.00 | 92 | 1016.0 |
| 20260510111012 | 72 | 316 | 0.0 | 0.0 | 0.00 | 0.00 | 0.00 | 92 | 1015.9 |
| 20260510110509 | 72 | 185 | 0.0 | 0.0 | 0.00 | 0.00 | 0.00 | 92 | 1015.8 |
| 20260510110030 | 72 | 171 | 0.0 | 0.0 | 0.00 | 0.00 | 0.00 | 92 | 1015.7 |
| 20260510105504 | 72 | 171 | 0.0 | 1.0 | 0.00 | 0.00 | 0.00 | 92 | 1015.5 |
| 20260510105004 | 72 | 171 | 0.0 | 1.0 | 0.00 | 0.00 | 0.00 | 92 | 1015.3 |
| 20260510104517 | 72 | 171 | 0.0 | 1.0 | 0.00 | 0.00 | 0.00 | 92 | 1015.1 |
| 20260510104003 | 72 | 171 | 0.0 | 2.0 | 0.00 | 0.00 | 0.00 | 92 | 1015.0 |
| 20260510103504 | 72 | 171 | 0.0 | 2.0 | 0.00 | 0.00 | 0.00 | 92 | 1014.9 |
| 20260510103021 | 72 | 173 | 0.0 | 2.0 | 0.00 | 0.00 | 0.00 | 92 | 1014.9 |
| 20260510102507 | 72 | 173 | 0.0 | 2.0 | 0.00 | 0.00 | 0.00 | 92 | 1015.0 |
| 20260510102004 | 72 | 173 | 0.0 | 3.0 | 0.00 | 0.00 | 0.00 | 92 | 1015.2 |
| 20260510101506 | 72 | 173 | 0.0 | 3.0 | 0.00 | 0.00 | 0.00 | 92 | 1015.0 |
| 20260510101004 | 72 | 163 | 1.0 | 2.0 | 0.00 | 0.00 | 0.00 | 91 | 1014.9 |
| 20260510100503 | 72 | 163 | 0.0 | 4.0 | 0.00 | 0.00 | 0.00 | 91 | 1014.6 |
| 20260510100014 | 72 | 163 | 0.0 | 4.0 | 0.00 | 0.00 | 0.00 | 91 | 1014.4 |
| 20260510095505 | 72 | 173 | 0.0 | 2.0 | 0.00 | 0.00 | 0.00 | 91 | 1014.3 |
| 20260510095003 | 72 | 174 | 0.0 | 0.0 | 0.00 | 0.00 | 0.00 | 90 | 1014.6 |
| 20260510094508 | 73 | 174 | 0.0 | 1.0 | 0.00 | 0.00 | 0.00 | 91 | 1014.6 |
| 20260510094008 | 73 | 174 | 0.0 | 2.0 | 0.00 | 0.00 | 0.00 | 91 | 1014.7 |
| 20260510093507 | 73 | 174 | 0.0 | 3.0 | 0.00 | 0.00 | 0.00 | 91 | 1014.6 |
| 20260510093005 | 73 | 178 | 0.0 | 4.0 | 0.00 | 0.00 | 0.00 | 91 | 1014.6 |
| 20260510092504 | 73 | 180 | 1.0 | 4.0 | 0.00 | 0.00 | 0.00 | 91 | 1014.5 |
| 20260510092007 | 73 | 171 | 0.0 | 4.0 | 0.00 | 0.00 | 0.00 | 90 | 1014.4 |
| 20260510091505 | 73 | 171 | 0.0 | 4.0 | 0.00 | 0.00 | 0.00 | 90 | 1014.3 |
| 20260510091004 | 73 | 175 | 0.0 | 0.0 | 0.00 | 0.00 | 0.00 | 90 | 1014.4 |
| 20260510090504 | 73 | 175 | 0.0 | 1.0 | 0.00 | 0.00 | 0.00 | 90 | 1014.5 |
| 20260510085505 | 73 | 173 | 0.0 | 2.0 | 0.00 | 0.00 | 0.00 | 90 | 1014.4 |
| 20260510085002 | 73 | 173 | 0.0 | 2.0 | 0.00 | 0.00 | 0.00 | 90 | 1014.4 |
| 20260510084521 | 73 | 173 | 0.0 | 2.0 | 0.00 | 0.00 | 0.00 | 90 | 1014.3 |
| 20260510084007 | 73 | 173 | 0.0 | 4.0 | 0.00 | 0.00 | 0.00 | 90 | 1014.3 |
| 20260510083505 | 73 | 173 | 0.0 | 4.0 | 0.00 | 0.00 | 0.00 | 90 | 1014.4 |
| 20260510083017 | 73 | 174 | 1.0 | 4.0 | 0.00 | 0.00 | 0.00 | 90 | 1014.4 |
| 20260510082508 | 73 | 153 | 2.0 | 5.0 | 0.00 | 0.00 | 0.00 | 90 | 1014.5 |
| 20260510082007 | 73 | 176 | 0.0 | 5.0 | 0.00 | 0.00 | 0.00 | 90 | 1014.6 |
| 20260510081513 | 73 | 162 | 0.0 | 2.0 | 0.00 | 0.00 | 0.00 | 90 | 1014.5 |
| 20260510081007 | 73 | 155 | 0.0 | 4.0 | 0.00 | 0.00 | 0.00 | 89 | 1014.5 |
| 20260510080509 | 73 | 155 | 0.0 | 4.0 | 0.00 | 0.00 | 0.00 | 90 | 1014.5 |
| 20260510080007 | 73 | 163 | 1.0 | 4.0 | 0.00 | 0.00 | 0.00 | 89 | 1014.7 |
| 20260510075507 | 73 | 171 | 0.0 | 4.0 | 0.00 | 0.00 | 0.00 | 89 | 1014.8 |
| 20260510075009 | 73 | 169 | 1.0 | 4.0 | 0.00 | 0.00 | 0.00 | 89 | 1014.8 |
| 20260510074512 | 73 | 153 | 1.0 | 4.0 | 0.00 | 0.00 | 0.00 | 89 | 1014.9 |
| 20260510074003 | 73 | 115 | 0.0 | 2.0 | 0.00 | 0.00 | 0.00 | 89 | 1014.8 |
| 20260510073503 | 73 | 106 | 0.0 | 2.0 | 0.00 | 0.00 | 0.00 | 89 | 1014.8 |
| 20260510073018 | 73 | 93 | 0.0 | 2.0 | 0.00 | 0.00 | 0.00 | 88 | 1014.9 |
| 20260510072504 | 73 | 69 | 0.0 | 1.0 | 0.00 | 0.00 | 0.00 | 88 | 1015.0 |
| 20260510072008 | 73 | 5 | 0.0 | 0.0 | 0.00 | 0.00 | 0.00 | 88 | 1015.1 |
| 20260510071523 | 74 | 5 | 0.0 | 0.0 | 0.00 | 0.00 | 0.00 | 88 | 1015.1 |
| 20260510071007 | 74 | 5 | 0.0 | 0.0 | 0.00 | 0.00 | 0.00 | 87 | 1015.0 |
| 20260510070503 | 74 | 5 | 0.0 | 0.0 | 0.00 | 0.00 | 0.00 | 87 | 1014.9 |
| 20260510070019 | 74 | 5 | 0.0 | 0.0 | 0.00 | 0.00 | 0.00 | 87 | 1014.9 |
| 20260510065514 | 74 | 5 | 0.0 | 0.0 | 0.00 | 0.00 | 0.00 | 87 | 1015.0 |
| 20260510065005 | 74 | 5 | 0.0 | 2.0 | 0.00 | 0.00 | 0.00 | 87 | 1015.1 |
| 20260510064511 | 74 | 5 | 0.0 | 2.0 | 0.00 | 0.00 | 0.00 | 87 | 1015.1 |
| 20260510064006 | 74 | 5 | 1.0 | 2.0 | 0.00 | 0.00 | 0.00 | 88 | 1015.1 |
| 20260510063509 | 74 | 123 | 0.0 | 0.0 | 0.00 | 0.00 | 0.00 | 87 | 1015.1 |
| 20260510063013 | 74 | 123 | 0.0 | 0.0 | 0.00 | 0.00 | 0.00 | 87 | 1015.2 |
| 20260510062508 | 74 | 123 | 0.0 | 0.0 | 0.00 | 0.00 | 0.00 | 87 | 1015.1 |
| 20260510062008 | 74 | 123 | 0.0 | 0.0 | 0.00 | 0.00 | 0.00 | 86 | 1015.2 |
| 20260510061511 | 74 | 123 | 0.0 | 0.0 | 0.00 | 0.00 | 0.00 | 86 | 1015.2 |
| 20260510061004 | 74 | 123 | 0.0 | 2.0 | 0.00 | 0.00 | 0.00 | 86 | 1015.1 |
| 20260510060508 | 74 | 123 | 0.0 | 2.0 | 0.00 | 0.00 | 0.00 | 86 | 1015.1 |
| 20260510060023 | 74 | 123 | 0.0 | 0.0 | 0.00 | 0.00 | 0.00 | 85 | 1015.3 |
| 20260510055508 | 75 | 123 | 0.0 | 0.0 | 0.00 | 0.00 | 0.00 | 85 | 1015.3 |
| 20260510055007 | 75 | 123 | 0.0 | 0.0 | 0.00 | 0.00 | 0.00 | 85 | 1015.4 |
| 20260510054524 | 75 | 123 | 0.0 | 0.0 | 0.00 | 0.00 | 0.00 | 85 | 1015.4 |
| 20260510054012 | 75 | 123 | 0.0 | 2.0 | 0.00 | 0.00 | 0.00 | 85 | 1015.5 |
| 20260510053503 | 75 | 123 | 0.0 | 2.0 | 0.00 | 0.00 | 0.00 | 84 | 1015.7 |
| 20260510053013 | 75 | 123 | 0.0 | 3.0 | 0.00 | 0.00 | 0.00 | 84 | 1015.7 |
| 20260510052507 | 75 | 123 | 1.0 | 3.0 | 0.00 | 0.00 | 0.00 | 84 | 1015.7 |
| 20260510052007 | 75 | 115 | 1.0 | 3.0 | 0.00 | 0.00 | 0.00 | 84 | 1015.6 |
| 20260510051521 | 76 | 76 | 0.0 | 2.0 | 0.00 | 0.00 | 0.00 | 84 | 1015.8 |
| 20260510051007 | 76 | 73 | 0.0 | 3.0 | 0.00 | 0.00 | 0.00 | 84 | 1015.8 |
| 20260510050504 | 76 | 78 | 0.0 | 4.0 | 0.00 | 0.00 | 0.00 | 84 | 1015.7 |
| 20260510050016 | 76 | 104 | 2.0 | 4.0 | 0.00 | 0.00 | 0.00 | 83 | 1015.7 |
| 20260510045510 | 76 | 133 | 0.0 | 2.0 | 0.00 | 0.00 | 0.00 | 82 | 1015.8 |
| 20260510045011 | 76 | 133 | 0.0 | 2.0 | 0.00 | 0.00 | 0.00 | 82 | 1015.8 |
| 20260510044514 | 76 | 133 | 0.0 | 2.0 | 0.00 | 0.00 | 0.00 | 82 | 1015.9 |
| 20260510043509 | 77 | 95 | 0.0 | 2.0 | 0.00 | 0.00 | 0.00 | 81 | 1015.8 |
| 20260510043024 | 77 | 95 | 0.0 | 2.0 | 0.00 | 0.00 | 0.00 | 81 | 1016.0 |
| 20260510042503 | 77 | 93 | 0.0 | 2.0 | 0.00 | 0.00 | 0.00 | 81 | 1016.0 |
| 20260510042004 | 77 | 93 | 0.0 | 2.0 | 0.00 | 0.00 | 0.00 | 80 | 1016.0 |
| 20260510041519 | 78 | 90 | 0.0 | 3.0 | 0.00 | 0.00 | 0.00 | 80 | 1016.1 |
| 20260510041005 | 78 | 88 | 1.0 | 4.0 | 0.00 | 0.00 | 0.00 | 81 | 1015.9 |
| 20260510040509 | 78 | 65 | 1.0 | 4.0 | 0.00 | 0.00 | 0.00 | 80 | 1016.1 |
| 20260510040020 | 78 | 93 | 1.0 | 4.0 | 0.00 | 0.00 | 0.00 | 79 | 1016.0 |
| 20260510035507 | 78 | 79 | 1.0 | 3.0 | 0.00 | 0.00 | 0.00 | 79 | 1016.0 |
| 20260510035004 | 78 | 93 | 0.0 | 2.0 | 0.00 | 0.00 | 0.00 | 79 | 1016.0 |
| 20260510034524 | 79 | 34 | 0.0 | 2.0 | 0.00 | 0.00 | 0.00 | 78 | 1015.9 |
| 20260510034009 | 79 | 34 | 0.0 | 3.0 | 0.00 | 0.00 | 0.00 | 78 | 1016.0 |
| 20260510033511 | 79 | 34 | 0.0 | 3.0 | 0.00 | 0.00 | 0.00 | 77 | 1016.0 |
| 20260510033020 | 79 | 352 | 0.0 | 4.0 | 0.00 | 0.00 | 0.00 | 77 | 1016.0 |
| 20260510032507 | 79 | 13 | 2.0 | 4.0 | 0.00 | 0.00 | 0.00 | 77 | 1015.8 |
| 20260510032012 | 79 | 352 | 0.0 | 4.0 | 0.00 | 0.00 | 0.00 | 77 | 1016.2 |
| 20260510031004 | 80 | 54 | 1.0 | 5.0 | 0.00 | 0.00 | 0.00 | 76 | 1016.0 |
| 20260510030507 | 80 | 24 | 3.0 | 6.0 | 0.00 | 0.00 | 0.00 | 76 | 1016.0 |
| 20260510030032 | 80 | 28 | 3.0 | 6.0 | 0.00 | 0.00 | 0.00 | 76 | 1015.8 |
| 20260510025509 | 80 | 26 | 1.0 | 7.0 | 0.00 | 0.00 | 0.00 | 75 | 1015.9 |
| 20260510025009 | 80 | 27 | 2.0 | 7.0 | 0.00 | 0.00 | 0.00 | 75 | 1015.9 |
| 20260510024526 | 81 | 12 | 1.0 | 7.0 | 0.00 | 0.00 | 0.00 | 75 | 1015.8 |
| 20260510024005 | 81 | 42 | 3.0 | 7.0 | 0.00 | 0.00 | 0.00 | 74 | 1015.7 |
| 20260510023512 | 81 | 41 | 1.0 | 4.0 | 0.00 | 0.00 | 0.00 | 73 | 1015.7 |
| 20260510023026 | 81 | 360 | 0.0 | 5.0 | 0.00 | 0.00 | 0.00 | 72 | 1015.6 |
| 20260510022511 | 81 | 350 | 2.0 | 5.0 | 0.00 | 0.00 | 0.00 | 71 | 1015.5 |
| 20260510022008 | 82 | 29 | 1.0 | 9.0 | 0.00 | 0.00 | 0.00 | 70 | 1015.6 |
| 20260510021528 | 82 | 13 | 4.0 | 9.0 | 0.00 | 0.00 | 0.00 | 70 | 1015.5 |
| 20260510021008 | 82 | 12 | 1.0 | 8.0 | 0.00 | 0.00 | 0.00 | 64 | 1015.5 |
| 20260510020503 | 82 | 9 | 3.0 | 8.0 | 0.00 | 0.00 | 0.00 | 67 | 1015.5 |
| 20260510020025 | 82 | 360 | 2.0 | 5.0 | 0.00 | 0.00 | 0.00 | 72 | 1015.6 |
| 20260510015505 | 82 | 296 | 2.0 | 5.0 | 0.00 | 0.00 | 0.00 | 72 | 1015.6 |
| 20260510015006 | 82 | 333 | 3.0 | 6.0 | 0.00 | 0.00 | 0.00 | 73 | 1015.4 |
| 20260510014010 | 82 | 293 | 1.0 | 6.0 | 0.00 | 0.00 | 0.00 | 72 | 1015.2 |
| 20260510013512 | 82 | 284 | 2.0 | 6.0 | 0.00 | 0.00 | 0.00 | 72 | 1015.1 |
| 20260510013024 | 82 | 300 | 1.0 | 5.0 | 0.00 | 0.00 | 0.00 | 72 | 1015.0 |
| 20260510012509 | 82 | 323 | 2.0 | 8.0 | 0.00 | 0.00 | 0.00 | 71 | 1014.8 |
| 20260510012008 | 82 | 257 | 2.0 | 8.0 | 0.00 | 0.00 | 0.00 | 70 | 1014.6 |
| 20260510011525 | 82 | 248 | 1.0 | 7.0 | 0.00 | 0.00 | 0.00 | 70 | 1014.6 |
| 20260510011008 | 82 | 288 | 1.0 | 10.0 | 0.00 | 0.00 | 0.00 | 69 | 1014.6 |
| 20260510010507 | 83 | 247 | 2.0 | 10.0 | 0.00 | 0.00 | 0.00 | 68 | 1014.5 |
| 20260510010026 | 83 | 246 | 2.0 | 9.0 | 0.00 | 0.00 | 0.00 | 68 | 1014.4 |
| 20260510005512 | 83 | 297 | 4.0 | 9.0 | 0.00 | 0.00 | 0.00 | 66 | 1014.3 |
| 20260510004517 | 83 | 286 | 1.0 | 8.0 | 0.00 | 0.00 | 0.00 | 62 | 1014.1 |
| 20260510004004 | 83 | 337 | 4.0 | 10.0 | 0.00 | 0.00 | 0.00 | 61 | 1014.0 |
| 20260510003508 | 83 | 311 | 0.0 | 10.0 | 0.00 | 0.00 | 0.00 | 60 | 1014.0 |
| 20260510003013 | 83 | 264 | 3.0 | 10.0 | 0.00 | 0.00 | 0.00 | 60 | 1013.8 |
| 20260510002504 | 84 | 271 | 1.0 | 7.0 | 0.00 | 0.00 | 0.00 | 59 | 1013.7 |
| 20260510002003 | 84 | 255 | 3.0 | 9.0 | 0.00 | 0.00 | 0.00 | 59 | 1013.7 |
| 20260510001004 | 85 | 257 | 2.0 | 11.0 | 0.00 | 0.00 | 0.00 | 59 | 1013.5 |
| 20260510000504 | 85 | 308 | 5.0 | 11.0 | 0.00 | 0.00 | 0.00 | 57 | 1013.4 |
| 20260509235505 | 86 | 273 | 5.0 | 10.0 | 0.00 | 0.00 | 0.00 | 57 | 1013.4 |
| 20260509235004 | 86 | 275 | 5.0 | 9.0 | 0.00 | 0.00 | 0.00 | 57 | 1013.4 |
| 20260509234008 | 87 | 270 | 6.0 | 11.0 | 0.00 | 0.00 | 0.00 | 56 | 1013.4 |
| 20260509233504 | 87 | 248 | 3.0 | 9.0 | 0.00 | 0.00 | 0.00 | 55 | 1013.3 |
| 20260509233022 | 88 | 298 | 2.0 | 13.0 | 0.00 | 0.00 | 0.00 | 55 | 1013.2 |
| 20260509232513 | 88 | 260 | 4.0 | 13.0 | 0.00 | 0.00 | 0.00 | 55 | 1013.1 |
| 20260509232003 | 88 | 259 | 5.0 | 11.0 | 0.00 | 0.00 | 0.00 | 55 | 1013.2 |
| 20260509231505 | 89 | 236 | 5.0 | 11.0 | 0.00 | 0.00 | 0.00 | 54 | 1013.0 |
| 20260509231003 | 89 | 257 | 5.0 | 12.0 | 0.00 | 0.00 | 0.00 | 53 | 1012.9 |
| 20260509230503 | 90 | 208 | 4.0 | 12.0 | 0.00 | 0.00 | 0.00 | 51 | 1012.9 |
| 20260509230011 | 91 | 288 | 5.0 | 12.0 | 0.00 | 0.00 | 0.00 | 52 | 1012.9 |
| 20260509225504 | 92 | 254 | 7.0 | 14.0 | 0.00 | 0.00 | 0.00 | 48 | 1012.9 |
| 20260509225004 | 92 | 282 | 6.0 | 14.0 | 0.00 | 0.00 | 0.00 | 48 | 1012.8 |
| 20260509224507 | 93 | 259 | 3.0 | 15.0 | 0.00 | 0.00 | 0.00 | 48 | 1012.7 |
| 20260509224003 | 93 | 310 | 5.0 | 15.0 | 0.00 | 0.00 | 0.00 | 47 | 1012.5 |
| 20260509223506 | 93 | 247 | 7.0 | 15.0 | 0.00 | 0.00 | 0.00 | 47 | 1012.5 |
| 20260509222505 | 93 | 247 | 6.0 | 13.0 | 0.00 | 0.00 | 0.00 | 46 | 1012.5 |
| 20260509222005 | 94 | 236 | 8.0 | 14.0 | 0.00 | 0.00 | 0.00 | 44 | 1012.5 |
| 20260509221518 | 95 | 212 | 8.0 | 14.0 | 0.00 | 0.00 | 0.00 | 45 | 1012.5 |
| 20260509221015 | 95 | 246 | 7.0 | 13.0 | 0.00 | 0.00 | 0.00 | 45 | 1012.4 |
| 20260509220505 | 95 | 196 | 6.0 | 17.0 | 0.00 | 0.00 | 0.00 | 43 | 1012.4 |
| 20260509215504 | 95 | 232 | 10.0 | 14.0 | 0.00 | 0.00 | 0.00 | 43 | 1012.3 |
| 20260509215006 | 95 | 250 | 8.0 | 16.0 | 0.00 | 0.00 | 0.00 | 43 | 1012.3 |
| 20260509214005 | 94 | 203 | 10.0 | 17.0 | 0.00 | 0.00 | 0.00 | 45 | 1012.1 |
| 20260509213504 | 95 | 220 | 10.0 | 17.0 | 0.00 | 0.00 | 0.00 | 44 | 1012.0 |
| 20260509213011 | 95 | 244 | 7.0 | 19.0 | 0.00 | 0.00 | 0.00 | 45 | 1011.9 |
| 20260509212506 | 95 | 227 | 10.0 | 19.0 | 0.00 | 0.00 | 0.00 | 43 | 1011.9 |
| 20260509212010 | 97 | 236 | 8.0 | 18.0 | 0.00 | 0.00 | 0.00 | 43 | 1011.9 |
| 20260509211506 | 97 | 240 | 8.0 | 18.0 | 0.00 | 0.00 | 0.00 | 43 | 1011.8 |
| 20260509211003 | 97 | 221 | 8.0 | 18.0 | 0.00 | 0.00 | 0.00 | 42 | 1011.8 |
| 20260509210512 | 97 | 252 | 6.0 | 16.0 | 0.00 | 0.00 | 0.00 | 44 | 1011.7 |
| 20260509210023 | 97 | 252 | 9.0 | 19.0 | 0.00 | 0.00 | 0.00 | 43 | 1011.8 |
| 20260509205003 | 98 | 228 | 7.0 | 14.0 | 0.00 | 0.00 | 0.00 | 44 | 1011.8 |
| 20260509204508 | 98 | 296 | 7.0 | 14.0 | 0.00 | 0.00 | 0.00 | 46 | 1011.7 |
| 20260509204004 | 98 | 238 | 9.0 | 13.0 | 0.00 | 0.00 | 0.00 | 45 | 1011.7 |
| 20260509203503 | 97 | 236 | 6.0 | 15.0 | 0.00 | 0.00 | 0.00 | 47 | 1011.8 |
| 20260509202503 | 95 | 263 | 7.0 | 15.0 | 0.00 | 0.00 | 0.00 | 49 | 1011.8 |
| 20260509202006 | 94 | 272 | 6.0 | 15.0 | 0.00 | 0.00 | 0.00 | 49 | 1011.9 |
| 20260509201518 | 94 | 219 | 4.0 | 13.0 | 0.00 | 0.00 | 0.00 | 51 | 1012.0 |
| 20260509201007 | 94 | 239 | 9.0 | 13.0 | 0.00 | 0.00 | 0.00 | 48 | 1012.1 |
| 20260509200509 | 94 | 227 | 7.0 | 13.0 | 0.00 | 0.00 | 0.00 | 52 | 1012.3 |
| 20260509200011 | 94 | 234 | 8.0 | 17.0 | 0.00 | 0.00 | 0.00 | 49 | 1012.2 |
| 20260509195506 | 95 | 254 | 11.0 | 17.0 | 0.00 | 0.00 | 0.00 | 46 | 1012.3 |
| 20260509195008 | 97 | 215 | 6.0 | 15.0 | 0.00 | 0.00 | 0.00 | 46 | 1012.2 |
| 20260509194509 | 98 | 251 | 7.0 | 15.0 | 0.00 | 0.00 | 0.00 | 44 | 1012.3 |
| 20260509194007 | 98 | 244 | 8.0 | 14.0 | 0.00 | 0.00 | 0.00 | 45 | 1012.3 |
| 20260509193503 | 98 | 265 | 7.0 | 14.0 | 0.00 | 0.00 | 0.00 | 44 | 1012.3 |
| 20260509192507 | 98 | 247 | 9.0 | 15.0 | 0.00 | 0.00 | 0.00 | 46 | 1012.5 |
| 20260509192009 | 97 | 184 | 8.0 | 15.0 | 0.00 | 0.00 | 0.00 | 48 | 1012.7 |
| 20260509191006 | 96 | 225 | 6.0 | 15.0 | 0.00 | 0.00 | 0.00 | 46 | 1012.8 |
| 20260509190506 | 96 | 246 | 9.0 | 16.0 | 0.00 | 0.00 | 0.00 | 47 | 1012.9 |
| 20260509185507 | 95 | 218 | 9.0 | 15.0 | 0.00 | 0.00 | 0.00 | 47 | 1013.0 |
| 20260509185009 | 95 | 186 | 7.0 | 14.0 | 0.00 | 0.00 | 0.00 | 47 | 1013.1 |
| 20260509184529 | 95 | 194 | 6.0 | 13.0 | 0.00 | 0.00 | 0.00 | 47 | 1013.1 |
| 20260509184008 | 96 | 204 | 7.0 | 14.0 | 0.00 | 0.00 | 0.00 | 48 | 1013.3 |
| 20260509183016 | 98 | 188 | 4.0 | 16.0 | 0.00 | 0.00 | 0.00 | 41 | 1013.2 |
| 20260509182504 | 98 | 219 | 10.0 | 16.0 | 0.00 | 0.00 | 0.00 | 44 | 1013.3 |
| 20260509182007 | 97 | 176 | 6.0 | 15.0 | 0.00 | 0.00 | 0.00 | 47 | 1013.2 |
| 20260509181514 | 97 | 223 | 6.0 | 15.0 | 0.00 | 0.00 | 0.00 | 46 | 1013.4 |
| 20260509181007 | 98 | 237 | 6.0 | 15.0 | 0.00 | 0.00 | 0.00 | 44 | 1013.3 |
| 20260509180508 | 97 | 207 | 4.0 | 14.0 | 0.00 | 0.00 | 0.00 | 45 | 1013.4 |